Regional Weather Roundup
Issued by NWS Charleston, SC

Current Version | Previous Version | Text Only | Print | Product List | Glossary On
Versions: 1 2 3 4 5 6 7 8 9 10 11 12 13 14 15 16 17 18 19 20 21 22 23 24 25 26 27 28 29 30 31 32 33 34 35 36 37 38 39 40 41 42 43 44 45 46 47 48 49 50
000 ASUS42 KCHS 242110 RWRCHS REGIONAL WEATHER ROUNDUP NATIONAL WEATHER SERVICE CHARLESTON SC 500 PM EDT THU JUL 24 2014 NOTE: "FAIR" INDICATES FEW OR NO CLOUDS BELOW 12,000 FEET WITH NO SIGNIFICANT WEATHER AND/OR OBSTRUCTIONS TO VISIBILITY. NOT ALL STATIONS ARE QUALITY CONTROLLED BY THE NATIONAL WEATHER SERVICE. USE DATA WITH CAUTION...ESPECIALLY DEWPOINT OBSERVATIONS. SCZ027-030-031-034>040-042>050-242200- ...SOUTH CAROLINA... CITY SKY/WX TMP DP RH WIND PRES REMARKS N CHARLESTON MOSUNNY 92 77 61 SW13 29.88F HX 105 WATERFRONT PRK N/A 86 N/A N/A S16G22 N/A FORT JOHNSON NOT AVBL MOUNT PLEASANT FAIR 90 77 66 SW13G18 29.89F HX 102 JOHNS ISLAND CLEAR 90 72 55 S13 29.90F HX 96 PINOPOLIS N/A 93 73 52 SW10 29.80F HX 102 MONCKS CORNER N/A 93 75 55 SW8 29.87F HX 104 SUMMERVILLE FAIR 93 72 49 SW6 29.89F HX 100 BEAUFORT MCAS PTSUNNY 94 72 48 W12G21 29.90F HX 102 BEAUFORT ARPT MOCLDY 91 72 52 SW9G16 29.89F HX 98 HILTON HEAD IS MOSUNNY 90 79 70 S7 29.91F HX 105 GEORGETOWN NOT AVBL WALTERBORO N/A 95 63 34 W10 29.89F HX 96 ORANGEBURG MOSUNNY 93 69 45 W13 29.88F HX 98 BARNWELL FAIR 93 70 46 W9 29.89F HX 99 AIKEN FAIR 90 70 51 W12G23 29.92F HX 95 MANNING MOCLDY 91 72 52 SW9G17 29.86F HX 98 KINGSTREE NOT AVBL COLUMBIA MOSUNNY 95 66 38 SW16 29.85F HX 98 SUMTER MOSUNNY 93 72 50 SW14 29.84F HX 101 FLORENCE MOSUNNY 90 74 59 SW5 29.85F HX 99 MYRTLE BEACH MOSUNNY 91 75 59 S14 29.85F HX 102 N MYRTLE BEACH SUNNY 88 77 69 SW23G29 29.85F HX 100 $$ GAZ063-065-086>088-099>101-113>116-118-119-134-136>141-150-242200- ...GEORGIA... CITY SKY/WX TMP DP RH WIND PRES REMARKS SAVANNAH ARPT MOSUNNY 94 69 44 W14 29.91F HX 99 HUNTER AAF MOSUNNY 92 72 51 W10G17 29.89F HX 100 FORT STEWART MOSUNNY 93 70 46 W12G20 29.90F HX 98 STATESBORO NOT AVBL SYLVANIA PTCLDY 92 74 56 W8 29.91F HX 101 CLAXTON FAIR 93 72 49 W6 29.91F HX 100 THOMSON MOSUNNY 91 76 62 SW6G16 29.94F HX 103 AUGUSTA-BUSH MOSUNNY 92 70 48 W9 29.88F HX 97 AUGUSTA-DANIEL MOSUNNY 93 68 43 W9 29.90F HX 97 SWAINSBORO FAIR 95 72 46 W10 29.92F HX 103 VIDALIA N/A 90 72 55 SW9 29.93F HX 96 ALMA PTSUNNY 94 67 41 SW13 29.93F HX 97 WAYCROSS MOSUNNY 97 73 46 W9 29.93F HX 106 JESUP NOT AVBL BRUNSWICK MOSUNNY 95 66 38 CALM 29.93F HX 98 SAINT SIMONS MOSUNNY 93 70 46 SW12 29.93F HX 99 $$ SCZ027-028-034-036>038-045-046-048>050-GAZ119-141-242200- ...LAKE AND SUPPLEMENTAL COASTAL OBSERVATIONS... STATION/POSITION TIME TEMP WIND PRES WAVE SWELL AIR SEA DIR/SP/G HT/PER HT/PER/DIR (UTC) (F) (DEG/KT/KT) (MB) (FT/S) (FT/S/D) UPR LAKE MARION NOT AVBL WINYAH BAY 2000 89 210/ 12 1012.0S LAKE MURRAY 2000 90 240/ 12/ 17 1010.5F ACE BASIN NERRS 2000 92 220/ 2 1013.0F FORT PULASKI 2100 91 230/ 8/ 14 1013.1F SAPELO ISLAND 2000 92 240/ 13 1015.0S $$ ANZ835-935-AMZ111-154-330-350-352-354-374-450-454-472-242200- ...C-MAN AND BUOY OBSERVATIONS... STATION/POSITION TIME TEMP WIND PRES WAVE SWELL AIR SEA DIR/SP/G HT/PER HT/PER/DIR (UTC) (F) (DEG/KT/KT) (MB) (FT/S) (FT/S/D) FOLLY BEACH CMAN 2000 85 210/ 19/ 21 1013.4F BUOY 41004 2100 82 83 220/ 17/ 21 1012.1F 4/ 5 2/ 7 BUOY 41008 2100 84 85 180/ 16/ 17 1013.3F 2/ 4 2/110/ 7 5E ST. MARYS GA 2100 86 N/A 2/ 7 FRYING PAN BUOY NOT AVBL BUOY 41025 2100 VRB 19/ 23 1011.3F 4/ 7 2/160/ 7 CAPE LOOKOUT NC 2000 76 50/ 7/ 9 1012.0F BUOY 41002 2031 82 82 240/ 17/ 21 1015.9F 5/ 6 2/ 60/11 BUOY 41010 2100 84 84 200/ 12/ 14 1016.2F 3/ 5 2/130/ 7 BUOY 41012 NOT AVBL ST AUGUSTINE FL 2100 84 150/ 15/ 17 1015.1F CAPERS NEARSHORE 2000 85 220/ 19/ 23 N/A FRIPP NEARSHORE NOT AVBL $$

USA.gov is the U.S. government's official web portal to all federal, state and local government web resources and services.